Location: Buckland
(65.9785°N, 161.1281°W)
Time: 14:02:53
(UTC+00:00)

Transit 4A - Pass Details

Date: 06 October 2022
Orbit: 871 x 972 km, 66.8° (Epoch: 29 November)

Event Time Altitude Azimuth Distance (km) Brightness Sun altitude
Exits shadow 12:47:34 38° 280° (W) 1,339 8.5 -24.9°
Maximum altitude 12:49:59 83° 4° (N) 905 7.8 -24.7°
Drops below altitude 10° 12:55:53 10° 93° (E) 2,540 10.6 -24.3°
Sets 12:58:21 0° 95° (E) 3,472 11.4 -24.2°
